OpenBCM V1.13 (Linux)

Packet Radio Mailbox

DB0FHN

[JN59NK Nuernberg]

 Login: GUEST





  
UA9CIR > KEPS     28.02.03 10:08l 151 Lines 3945 Bytes #999 (0) @ AMSAT
BID : ORB03058.O
Read: DB0FHN GUEST
Subj: Orbital Elements  03058.OSCAR
Path: DB0FHN<DB0ZWI<DB0HOT<OK0PBX<OK0PHL<OK0POV<OK0PAB<OK0PBR<UA6ADV<RN6AM<
      RU9CYA<UA9CIR
Sent: 030228/0615Z @:UA9CIR.SVR.RUS.EU #:64955 [Ekaterinburg] $:ORB03058.O
From: UA9CIR@UA9CIR.SVR.RUS.EU
To  : KEPS@AMSAT


HR AMSAT ORBITAL ELEMENTS FOR OSCAR SATELLITES
FROM WA5QGD FORT WORTH,TX February 27, 2003
SEND SUBSCRIBE/UNSUBSCRIBE TO majordomo@amsat.org ONLY
BID: ORB03058.O
TO ALL RADIO AMATEURS BT

Satellite: AO-07
Catalog number: 07530
Epoch time:      03057.67235144
Element set:     152
Inclination:      101.7595 deg
RA of node:       105.3832 deg
Eccentricity:    0.0012212
Arg of perigee:    63.3786 deg
Mean anomaly:     296.8532 deg
Mean motion:   12.53564551 rev/day
Decay rate:       -2.9e-07 rev/day^2
Epoch rev:           29420
Checksum:              280

Satellite: AO-10
Catalog number: 14129
Epoch time:      03053.29347507
Element set:    0920
Inclination:      025.9661 deg
RA of node:       163.6642 deg
Eccentricity:    0.6025305
Arg of perigee:   329.8586 deg
Mean anomaly:     006.1874 deg
Mean motion:   02.05867335 rev/day
Decay rate:      -1.35e-06 rev/day^2
Epoch rev:           14811
Checksum:              296

Satellite: UO-11
Catalog number: 14781
Epoch time:      03058.88610490
Element set:      82
Inclination:       98.1192 deg
RA of node:        32.8817 deg
Eccentricity:    0.0009405
Arg of perigee:   173.6318 deg
Mean anomaly:     186.5012 deg
Mean motion:   14.78018386 rev/day
Decay rate:       7.31e-06 rev/day^2
Epoch rev:            1761
Checksum:              296

Satellite: RS-10/11
Catalog number: 18129
Epoch time:      03058.25753205
Element set:     205
Inclination:       82.9275 deg
RA of node:       140.1378 deg
Eccentricity:    0.0010543
Arg of perigee:   196.6847 deg
Mean anomaly:     163.3963 deg
Mean motion:   13.72701876 rev/day
Decay rate:        7.2e-07 rev/day^2
Epoch rev:           78570
Checksum:              307

Satellite: FO-20
Catalog number: 20480
Epoch time:      03057.96509175
Element set:    0471
Inclination:      099.0476 deg
RA of node:       019.1291 deg
Eccentricity:    0.0540637
Arg of perigee:   344.8805 deg
Mean anomaly:     013.6668 deg
Mean motion:   12.83329947 rev/day
Decay rate:       -5.0e-07 rev/day^2
Epoch rev:           61159
Checksum:              317

Satellite: RS-12/13
Catalog number: 21089
Epoch time:      03057.83983977
Element set:    0495
Inclination:      082.9235 deg
RA of node:       175.2445 deg
Eccentricity:    0.0027599
Arg of perigee:   263.4432 deg
Mean anomaly:     096.3593 deg
Mean motion:   13.74405215 rev/day
Decay rate:        6.8e-07 rev/day^2
Epoch rev:           60492
Checksum:              340

Satellite: RS-15
Catalog number: 23439
Epoch time:      03058.87234134
Element set:     684
Inclination:       64.8161 deg
RA of node:        26.4361 deg
Eccentricity:    0.0146732
Arg of perigee:   113.4257 deg
Mean anomaly:     248.2175 deg
Mean motion:   11.27547638 rev/day
Decay rate:       -4.0e-07 rev/day^2
Epoch rev:           33664
Checksum:              298

Satellite: FO-29
Catalog number: 24278
Epoch time:      03058.41659171
Element set:     563
Inclination:       98.5379 deg
RA of node:       208.4357 deg
Eccentricity:    0.0350377
Arg of perigee:   193.4476 deg
Mean anomaly:     165.7136 deg
Mean motion:   13.52872909 rev/day
Decay rate:       -1.1e-07 rev/day^2
Epoch rev:           32250
Checksum:              328

Satellite: SO-33
Catalog number: 25509
Epoch time:      03058.11426531
Element set:     789
Inclination:       31.4311 deg
RA of node:       104.9011 deg
Eccentricity:    0.0357262
Arg of perigee:    17.4574 deg
Mean anomaly:     343.7986 deg
Mean motion:   14.27445357 rev/day
Decay rate:       5.42e-06 rev/day^2
Epoch rev:           22653
Checksum:              293

Satellite: AO-40
Catalog number: 26609
Epoch time:      03058.16686962
Element set:     312
Inclination:        8.1401 deg
RA of node:        62.4789 deg
Eccentricity:    0.7944119
Arg of perigee:   148.1042 deg
Mean anomaly:     305.2468 deg
Mean motion:    1.25596203 rev/day
Decay rate:      -2.67e-06 rev/day^2
Epoch rev:            1069
Checksum:              301



Read previous mail | Read next mail


 13.09.2026 14:06:01lGo back Go up